Orbital Elements at Epoch 2459200.5 (2020-Dec-17.0) TDB
Reference: JPL 21 (heliocentric ecliptic J2000)
Element | Value | Uncertainty (1-sigma) | Units |
e | .1651715222096304 | 1.6317e-07 | |
a | 2.522375026226944 | 1.2895e-08 | au |
q | 2.105750503561483 | 4.1177e-07 | au |
i | 6.91332634481269 | 5.1725e-06 | deg |
node | 114.6457348064973 | 5.38e-05 | deg |
peri | 282.3095927617097 | 5.5629e-05 | deg |
M | 298.990542971395 | 1.6939e-05 | deg |
tp | 2459448.474813764292 (2021-Aug-21.97481376) | 6.9467e-05 | TDB |
period | 1463.231067821001 4.01 | 1.1221e-05 3.072e-08 | d yr |
n | .2460308613704471 | 1.8867e-09 | deg/d |
Q | 2.938999548892405 | 1.5025e-08 | au |
|
| | Orbit Determination Parameters
Additional Information
|